[[{"header":{"parameterUnit":"m.s-1","parameterCategory":1,"la1":30.2991,"la2":30.254,"lo1":-89.0895,"lo2":-89.0444,"dy":0.0017,"dx":0.0017,"nx":28,"ny":28,"refTime":"2025-03-29T03:00:00:Z","depth":0,"parameterNumber":2,"parameterNumberName":"U-component_of_WINDS"},"data":[0,0,0,0,0,0,0,0,0,0,0,0,0,0,0,0,0,0,0,0,0,0,0,0,0,0,0,0,0,0,0,0,0,0,0,0,0,0,0,0,0,0,0,0,0,0,0,0,0,0,0,0,0,0,0,0,0,0,-2.0147,-2.0148,0,-2.0217,-2.0217,-2.0218,-2.0238,-2.0238,-2.0238,-2.0237,-2.0308,-2.031,-2.0313,0,0,0,0,0,0,0,0,0,0,0,0,0,-2.0033,-2.0035,-2.0147,-2.0148,-2.0149,-2.0217,-2.0217,-2.0218,-2.0238,-2.0238,-2.0237,-2.0237,-2.0307,-2.031,-2.0313,0,0,0,0,0,0,0,0,0,0,0,0,0,-2.009,-2.0035,-2.0147,-2.0167,-2.017,-2.0216,-2.0218,-2.0219,-2.0238,-2.0238,-2.0237,-2.0237,-2.0307,-2.031,-2.0313,-2.0345,0,0,-2.0323,-2.0325,0,0,0,0,0,0,0,0,-2.0087,-2.0094,-2.0163,-2.0166,-2.0169,-2.0218,-2.0203,-2.0261,-2.0239,-2.0212,-2.0237,-2.0237,-2.0279,-2.0284,-2.0298,-2.0348,-2.0351,-2.0324,-2.0326,-2.0327,-2.0328,0,0,0,0,0,0,0,-2.0083,-2.0092,-2.0175,-2.0164,-2.0168,-2.0173,-2.018,-2.0214,-2.0248,-2.0215,-2.0216,-2.0224,-2.028,-2.0295,-2.03,-2.0352,-2.0324,-2.0326,-2.0329,-2.033,-2.0432,-2.0433,0,0,0,0,0,0,-2.0076,-2.0088,-2.0173,-2.0177,-2.0126,-2.0175,-2.0184,-2.0203,-2.0247,-2.0254,-2.0225,-2.0225,-2.029,-2.0296,-2.0303,-2.0343,-2.0327,-2.033,-2.0332,-2.0431,-2.0432,-2.0433,0,0,0,0,0,0,-2.0073,-2.0083,-2.017,-2.0133,-2.0144,-2.0178,-2.0199,-2.0205,-2.022,-2.0255,-2.0261,-2.0234,-2.029,-2.0298,-2.0334,-2.0346,-2.0332,-2.0335,-2.043,-2.0432,-2.0432,-2.0423,0,0,0,0,0,0,-2.007,-2.0082,-2.0094,-2.0133,-2.0146,-2.02,-2.02,-2.0206,-2.0225,-2.0226,-2.0265,-2.0271,-2.029,-2.0329,-2.0338,-2.035,-2.0337,-2.043,-2.0431,-2.0432,-2.0422,-2.0424,-2.0425,0,0,0,0,0,-2.0065,-2.0089,-2.0095,-2.0105,-2.0162,-2.02,-2.0208,-2.0229,-2.0226,-2.0239,-2.0262,-2.027,-2.0343,-2.0333,-2.0342,-2.0356,-2.0429,-2.0431,-2.0432,-2.0422,-2.0423,-2.0425,0,0,0,0,0,0,-2.005,-2.0094,-2.0101,-2.0138,-2.0165,-2.0204,-2.022,-2.023,-2.0258,-2.0258,-2.0283,-2.0292,-2.0326,-2.0345,-2.0332,-2.0389,-2.0386,-2.039,-2.0375,-2.0377,-2.0378,-2.0372,-2.034,0,0,0,0,0,-2.0051,-2.0078,-2.0115,-2.0144,-2.0157,-2.0186,-2.0204,-2.0218,-2.0247,-2.0259,-2.0284,-2.0312,-2.0342,-2.0361,-2.039,-2.0426,-2.0434,-2.044,-2.0441,-2.0442,-2.0444,-2.0465,-2.0467,-2.0438,-2.0438,-2.0438,0,0,-2.0052,-2.008,-2.0096,-2.0141,-2.0164,-2.0192,-2.0196,-2.0225,-2.0246,-2.0263,-2.0299,-2.0318,-2.0352,-2.0388,-2.0405,-2.0405,-2.0454,-2.0444,-2.0444,-2.0446,-2.0466,-2.0469,-2.0472,-2.0439,-2.0439,-2.0439,0,0,-2.007,-2.0094,-2.012,-2.0143,-2.0178,-2.0197,-2.0203,-2.0241,-2.0255,-2.0291,-2.0305,-2.033,-2.038,-2.0403,-2.0422,-2.0449,-2.0458,-2.0458,-2.0463,-2.0483,-2.0485,-2.0487,-2.0496,-2.0499,-2.046,-2.046,-2.046,0,-2.0067,-2.0109,-2.0132,-2.0161,-2.018,-2.0198,-2.0225,-2.0246,-2.0288,-2.0302,-2.0301,-2.0364,-2.0388,-2.043,-2.0437,-2.0451,-2.0459,-2.0453,-2.0483,-2.0485,-2.0488,-2.0497,-2.05,-2.046,-2.046,-2.046,-2.046,0,-2.0105,-2.0134,-2.0151,-2.0192,-2.0213,-2.0241,-2.0268,-2.0287,-2.03,-2.0319,-2.0356,-2.0385,-2.0421,-2.0432,-2.0444,-2.0476,-2.0474,-2.0478,-2.0475,-2.049,-2.0499,-2.0502,-2.046,-2.046,-2.046,-2.046,0,0,-2.0113,-2.0166,-2.0172,-2.0191,-2.0231,-2.0254,-2.0282,-2.0317,-2.0333,-2.0362,-2.0387,-2.0429,-2.0433,-2.0454,-2.0469,-2.0487,-2.0506,-2.0488,-2.0489,-2.049,-2.0542,-2.0538,-2.0542,-2.0512,-2.0513,-2.0514,-2.0539,0,-2.0135,-2.0186,-2.0207,-2.0249,-2.0276,-2.0294,-2.0319,-2.0346,-2.0365,-2.0391,-2.0413,-2.0443,-2.0445,-2.0458,-2.0476,-2.0499,-2.0516,-2.0498,-2.0535,-2.0536,-2.0525,-2.0547,-2.0543,-2.0565,-2.0543,-2.0543,-2.0544,0,-2.0166,-2.0196,-2.024,-2.0277,-2.0289,-2.0311,-2.0344,-2.0369,-2.0401,-2.0414,-2.0438,-2.0452,-2.0483,-2.048,-2.0523,-2.051,-2.0526,-2.054,-2.0542,-2.0545,-2.054,-2.055,-2.0573,-2.0576,-2.055,-2.0549,-2.0549,0,-2.0167,-2.0218,-2.025,-2.0266,-2.031,-2.0325,-2.0344,-2.0376,-2.0395,-2.0425,-2.0438,-2.0471,-2.0489,-2.0514,-2.0538,-2.0533,-2.0578,-2.0577,-2.059,-2.0589,-2.0597,-2.0596,-2.0622,-2.061,-2.061,-2.061,-2.061,0,-2.0188,-2.0214,-2.0251,-2.0271,-2.0301,-2.0326,-2.0355,-2.0376,-2.0403,-2.0428,-2.0446,-2.0469,-2.0498,-2.0525,-2.0544,-2.0576,-2.0585,-2.0596,-2.06,-2.0594,-2.0592,-2.0604,-2.0603,-2.0611,-2.061,-2.061,-2.061,0,-2.0193,-2.0219,-2.0256,-2.0295,-2.0306,-2.0326,-2.036,-2.038,-2.0401,-2.0431,-2.044,-2.0473,-2.0505,-2.0531,-2.0574,-2.0586,-2.062,-2.0626,-2.0609,-2.0611,-2.0623,-2.0621,-2.0656,-2.0662,-2.0646,-2.0646,-2.0647,0,-2.0205,-2.0225,-2.0267,-2.0284,-2.0303,-2.0332,-2.0352,-2.0378,-2.0398,-2.0436,-2.0452,-2.0485,-2.0514,-2.0565,-2.0592,-2.0625,-2.0631,-2.0641,-2.0636,-2.0628,-2.063,-2.0628,-2.063,-2.0641,-2.0641,-2.0641,-2.0641,0,-2.0222,-2.0234,-2.0262,-2.0295,-2.0318,-2.0346,-2.0373,-2.0387,-2.0418,-2.044,-2.0473,-2.0495,-2.0538,-2.0572,-2.0607,-2.0628,-2.064,-2.0643,-2.0648,-2.064,-2.063,-2.0635,-2.061,-2.0642,-2.0642,-2.0642,-2.0642,-2.0642,-2.023,-2.0249,-2.0281,-2.0312,-2.0336,-2.0361,-2.0382,-2.0406,-2.0434,-2.0471,-2.0485,-2.0519,-2.0551,-2.06,-2.0621,-2.0648,-2.0649,-2.0656,-2.0657,-2.0659,-2.0657,-2.0626,-2.0655,-2.0655,-2.0655,-2.0655,-2.0655,0,-2.0248,-2.027,-2.0298,-2.0336,-2.036,-2.037,-2.0401,-2.0421,-2.0451,-2.0479,-2.0507,-2.0545,-2.0578,-2.0608,-2.0642,-2.0658,-2.0665,-2.0666,-2.0665,-2.0669,-2.0655,-2.0647,-2.0661,-2.0661,-2.0661,-2.0661,-2.0661,-2.0661,-2.026,-2.0292,-2.0308,-2.0353,-2.0374,-2.0408,-2.0425,-2.0448,-2.0471,-2.0513,-2.054,-2.056,-2.059,-2.0626,-2.0657,-2.0665,-2.0676,-2.0676,-2.0686,-2.0671,-2.067,-2.0669,-2.0662,-2.0679,-2.0679,-2.0698,-2.0698,-2.0698]},{"header":{"parameterUnit":"m.s-1","parameterCategory":1,"la1":30.2991,"la2":30.254,"lo1":-89.0895,"lo2":-89.0444,"dy":0.0017,"dx":0.0017,"nx":28,"ny":28,"refTime":"2025-03-29T03:00:00:Z","depth":0,"parameterNumber":3,"parameterNumberName":"V-component_of_WINDS"},"data":[0,0,0,0,0,0,0,0,0,0,0,0,0,0,0,0,0,0,0,0,0,0,0,0,0,0,0,0,0,0,0,0,0,0,0,0,0,0,0,0,0,0,0,0,0,0,0,0,0,0,0,0,0,0,0,0,0,0,4.4162,4.4162,0,4.419,4.419,4.419,4.4182,4.4182,4.4181,4.4181,4.4206,4.4207,4.4208,0,0,0,0,0,0,0,0,0,0,0,0,0,4.41,4.4102,4.4162,4.4162,4.4162,4.419,4.419,4.419,4.4182,4.4182,4.4181,4.418,4.4206,4.4207,4.4208,0,0,0,0,0,0,0,0,0,0,0,0,0,4.4128,4.4102,4.4162,4.4162,4.4162,4.419,4.419,4.4191,4.4182,4.4182,4.4181,4.418,4.4205,4.4207,4.4209,4.4237,0,0,4.4214,4.4215,0,0,0,0,0,0,0,0,4.4126,4.413,4.4161,4.4162,4.4162,4.4182,4.4178,4.4206,4.4183,4.4175,4.4181,4.418,4.4198,4.4201,4.4208,4.4238,4.4239,4.4214,4.4215,4.4216,4.4217,0,0,0,0,0,0,0,4.4124,4.4128,4.4173,4.4162,4.4162,4.416,4.4163,4.4183,4.4191,4.4175,4.4175,4.4178,4.4198,4.4206,4.4208,4.4239,4.4214,4.4216,4.4217,4.4218,4.4298,4.4299,0,0,0,0,0,0,4.4122,4.4127,4.4172,4.4174,4.4142,4.4162,4.4165,4.4176,4.4191,4.4192,4.4179,4.4178,4.4203,4.4206,4.4209,4.4246,4.4216,4.4218,4.4219,4.4297,4.4298,4.4299,0,0,0,0,0,0,4.4121,4.4126,4.4171,4.415,4.4156,4.4164,4.4176,4.4177,4.4185,4.4194,4.4195,4.4186,4.4203,4.4207,4.4231,4.4246,4.4219,4.422,4.4295,4.4297,4.4299,4.4317,0,0,0,0,0,0,4.4119,4.4126,4.4137,4.4151,4.4157,4.4192,4.4177,4.4178,4.4188,4.4187,4.42,4.4201,4.4202,4.4228,4.4233,4.4248,4.4222,4.4294,4.4296,4.4298,4.4315,4.4319,4.4323,0,0,0,0,0,4.4117,4.4139,4.4137,4.4143,4.4171,4.4193,4.4197,4.4199,4.419,4.4201,4.4207,4.4201,4.4244,4.4231,4.4236,4.4252,4.4293,4.4296,4.4298,4.4314,4.4319,4.4323,0,0,0,0,0,0,4.4125,4.4141,4.4139,4.4166,4.4179,4.4192,4.4206,4.4203,4.4218,4.4216,4.4216,4.4219,4.4245,4.4251,4.4236,4.4282,4.4267,4.4271,4.4277,4.4282,4.4286,4.4284,4.4223,0,0,0,0,0,4.413,4.4148,4.4161,4.4184,4.419,4.4197,4.4207,4.4208,4.422,4.4225,4.4233,4.4244,4.4261,4.4271,4.4287,4.4316,4.432,4.433,4.4333,4.4336,4.434,4.4358,4.4364,4.4307,4.4307,4.4307,0,0,4.414,4.4152,4.4162,4.4186,4.4195,4.4214,4.4201,4.4221,4.4235,4.4227,4.4252,4.4258,4.4271,4.43,4.4312,4.4305,4.4356,4.4339,4.4342,4.4343,4.4361,4.4367,4.4372,4.4308,4.4308,4.4308,0,0,4.417,4.4179,4.4201,4.4212,4.4228,4.4233,4.4238,4.4252,4.4257,4.4282,4.4278,4.4294,4.4321,4.4332,4.4341,4.4378,4.4374,4.4382,4.4402,4.442,4.4425,4.4429,4.4445,4.445,4.4386,4.4386,4.4386,0,4.418,4.4209,4.4212,4.4233,4.4245,4.4241,4.4264,4.4274,4.4293,4.4301,4.4293,4.433,4.4338,4.437,4.4379,4.4386,4.4393,4.4381,4.4424,4.4428,4.4432,4.4447,4.4452,4.4387,4.4387,4.4386,4.4386,0,4.4223,4.4243,4.4259,4.428,4.4293,4.4315,4.4322,4.4334,4.4334,4.434,4.4367,4.4378,4.4397,4.4404,4.4403,4.4436,4.4432,4.4424,4.4409,4.4439,4.4453,4.4458,4.4388,4.4388,4.4388,4.4387,0,0,4.4256,4.4282,4.4288,4.4299,4.4318,4.4333,4.4355,4.4376,4.4388,4.4401,4.4421,4.4446,4.444,4.445,4.4451,4.4467,4.4499,4.4457,4.4458,4.4467,4.4539,4.4547,4.4553,4.4496,4.4497,4.4498,4.4539,0,4.4289,4.433,4.4335,4.4371,4.4391,4.4389,4.4409,4.4423,4.4429,4.4447,4.4454,4.4473,4.4462,4.4469,4.4484,4.4492,4.4514,4.4488,4.4515,4.4516,4.4514,4.456,4.4567,4.4606,4.4544,4.4545,4.4546,0,4.4331,4.435,4.4389,4.4409,4.4417,4.4435,4.4456,4.4472,4.4489,4.4492,4.4506,4.4505,4.4529,4.4513,4.4547,4.4529,4.4541,4.4546,4.4548,4.4552,4.4534,4.4567,4.4618,4.4625,4.4554,4.4554,4.4553,0,4.4355,4.4389,4.4418,4.4428,4.445,4.4463,4.4473,4.4488,4.4502,4.4519,4.4528,4.4547,4.4559,4.4574,4.4579,4.4566,4.4613,4.4597,4.4618,4.4618,4.4629,4.4629,4.4684,4.4633,4.4633,4.4633,4.4633,0,4.4392,4.4416,4.443,4.4448,4.4476,4.4482,4.4509,4.4518,4.4533,4.4553,4.4551,4.4569,4.4574,4.4594,4.4597,4.4627,4.4631,4.4635,4.4636,4.4637,4.4636,4.4645,4.4643,4.4634,4.4634,4.4634,4.4633,0,4.4423,4.4433,4.4465,4.4485,4.4491,4.4511,4.4528,4.4545,4.4553,4.4578,4.4584,4.4596,4.4619,4.4626,4.4652,4.4655,4.469,4.4687,4.4686,4.4686,4.4708,4.4707,4.4773,4.4783,4.4723,4.4723,4.4724,0,4.4447,4.4466,4.449,4.4504,4.4515,4.4538,4.4552,4.4559,4.4574,4.4596,4.4611,4.4635,4.4654,4.4692,4.4702,4.4723,4.4723,4.4744,4.4726,4.4727,4.4726,4.4726,4.4729,4.4748,4.4749,4.4749,4.475,0,4.4488,4.4493,4.4515,4.454,4.4558,4.4576,4.4594,4.4606,4.4615,4.4632,4.4658,4.4673,4.4703,4.4727,4.4749,4.4759,4.4757,4.4756,4.4762,4.4764,4.4763,4.4766,4.4698,4.4754,4.4754,4.4753,4.4753,4.4753,4.4518,4.4537,4.4558,4.4583,4.4598,4.4616,4.4635,4.4646,4.4667,4.4694,4.4696,4.4724,4.4742,4.4772,4.4784,4.4806,4.4799,4.4808,4.481,4.4813,4.4816,4.4758,4.4809,4.4809,4.4809,4.4809,4.4809,0,4.4562,4.4576,4.4599,4.4627,4.4647,4.4645,4.4665,4.4682,4.4708,4.4726,4.4746,4.4777,4.4801,4.4814,4.4838,4.4854,4.4854,4.486,4.486,4.4863,4.4819,4.4813,4.486,4.486,4.486,4.486,4.486,4.486,4.4587,4.462,4.4628,4.4669,4.4682,4.4712,4.4724,4.4741,4.4756,4.4791,4.4812,4.4822,4.4838,4.4865,4.4887,4.489,4.49,4.4908,4.4911,4.487,4.4865,4.486,4.4854,4.491,4.491,4.4953,4.4953,4.4954]}]]